{"data":{"norad_id":54147,"intl_designator":"2022-138AL","name":"ONEWEB-0535","alt_names":[],"object_type":"PAYLOAD","status":"ACTIVE","operator":null,"country":"UK","launch_date":"2022-10-22","launch_site_code":"SRILR","launch_vehicle":null,"mission":null,"orbit_class":"UNKNOWN","rcs_meters":null,"size_class":null,"mass_kg":null,"dimensions":null,"purposes":["comms"],"wikipedia_slug":null,"has_3d_model":false,"image_url":null,"decayed_at":null,"tle_current":{"epoch":"2026-09-20T00:02:46.792608Z","epoch_age_seconds":64994,"freshness":"FRESH","line1":"1 54147U 22138AL  26263.00193047  .00000086  00000+0  18304-3 0  9992","line2":"2 54147  87.9118 286.0738 0001961 101.3793 258.7560 13.19726635189343","mean_motion":13.19726635,"eccentricity":0.0001961,"inclination_deg":87.9118,"raan_deg":286.0738,"arg_perigee_deg":101.3793,"mean_anomaly_deg":258.756,"bstar":0.00018304,"rev_number":18934,"period_min":109.11350591935,"perigee_km":1184.2810237029,"apogee_km":1187.2475857946,"semimajor_km":7563.9013047487,"source":"CELESTRAK","updated_at":"2026-09-20T09:00:44.722410Z"}}}